Theta_e
351 351 351 351 352 353 353 352 352 351 351 352 353 353 353 353 354 354 354 353 353 353 354 354 354 354 354 352 352 352 352 353 354 354 355 355 355 355 355 355 354 353 353 352 351 352 353 354 354 354 354 354 354 353 353 353 353 353 353 353 353 353 352 350 351 352 351 349 349 348 347 346 346 346 346 346 345 345 345 345 344 344 344 344 344
352 351 351 352 352 353 353 353 353 352 351 351 351 352 353 354 354 354 354 354 354 354 354 354 354 354 354 352 353 353 353 353 353 354 354 354 355 355 355 356 355 354 352 352 352 353 353 353 354 354 354 354 353 352 351 352 353 353 352 353 353 352 351 350 349 350 350 349 348 346 346 345 345 345 345 346 345 344 344 344 344 344 343 342 340
352 352 352 352 352 353 353 353 352 352 352 351 351 352 353 354 353 354 355 354 354 355 354 354 353 354 353 353 353 353 353 353 353 354 354 353 354 353 355 355 355 354 353 351 352 353 352 353 353 353 354 355 353 351 350 351 352 352 352 351 351 351 351 350 349 349 349 349 347 346 346 344 344 344 345 344 344 344 344 344 343 342 341 338 334
352 353 353 353 353 353 353 353 353 352 352 352 352 352 353 353 354 355 355 355 355 355 355 354 354 354 353 352 353 353 353 353 352 353 353 353 352 353 354 354 354 354 353 351 351 352 353 353 353 353 354 355 354 350 349 350 351 351 351 351 351 351 350 351 350 349 349 348 348 348 347 344 343 343 341 340 339 340 342 343 342 342 340 336 333
352 354 354 354 355 354 353 353 353 353 353 353 353 353 354 354 355 356 356 356 356 356 356 356 355 355 354 353 353 354 353 353 352 351 351 353 353 354 353 352 353 353 353 352 353 353 354 353 353 353 353 353 352 351 350 350 351 351 351 351 350 351 350 349 349 349 348 347 348 349 346 344 342 340 337 336 335 337 339 339 340 341 339 336 336
354 354 354 354 354 355 354 353 353 353 354 354 354 354 354 355 356 357 357 357 357 356 356 356 356 355 354 353 354 354 354 353 351 350 351 353 354 354 354 353 353 354 353 353 354 353 354 354 353 353 352 352 352 352 351 351 351 350 350 350 350 350 349 348 348 348 348 347 347 347 344 341 339 337 336 334 334 336 337 337 338 338 336 335 338
355 354 353 352 353 354 353 352 353 354 354 355 355 355 355 355 356 357 357 358 357 357 357 356 356 355 355 354 354 354 353 351 349 350 352 353 354 355 354 354 354 354 355 355 354 354 354 354 353 352 351 351 351 351 351 350 350 350 350 350 349 349 348 347 347 348 347 346 346 345 342 339 338 337 335 332 331 334 335 336 337 335 333 335 338
355 353 351 351 352 353 351 351 353 354 354 355 355 355 355 355 356 357 358 358 357 357 356 356 355 354 354 354 353 352 351 349 349 350 352 353 354 355 355 354 355 355 355 354 353 354 353 353 352 351 351 351 351 351 351 351 350 350 350 350 349 348 347 346 347 347 345 345 345 343 340 338 338 337 334 331 331 333 333 335 336 335 335 337 337
353 352 351 350 351 352 350 350 353 354 354 354 354 355 355 355 356 356 357 358 357 355 354 354 354 353 353 352 351 351 349 349 349 350 352 354 354 355 355 354 353 354 354 354 353 353 352 351 351 352 351 351 350 350 350 350 350 350 349 350 349 348 346 345 346 345 344 345 343 340 338 337 338 337 334 332 333 333 332 334 336 337 336 336 336
352 351 351 350 349 351 351 350 351 353 354 354 354 355 355 355 355 355 357 357 356 354 351 351 352 352 351 351 351 350 350 350 350 350 352 354 354 355 355 354 351 350 351 353 352 352 351 351 351 351 351 351 350 350 350 350 350 349 347 345 344 345 345 345 345 345 345 345 341 338 338 337 337 337 333 332 335 335 334 335 336 337 336 336 336
351 350 350 350 349 350 350 351 352 352 353 354 354 355 354 354 354 354 355 356 355 354 351 350 351 351 351 350 351 351 351 350 351 352 354 355 355 355 353 353 352 350 349 350 350 351 351 350 351 350 349 348 347 345 344 343 342 341 340 339 340 343 344 345 346 346 344 342 339 338 339 338 337 336 333 333 336 337 336 335 336 337 336 336 337
351 350 350 349 349 349 350 351 351 352 354 354 353 354 353 353 353 353 354 355 354 353 351 351 350 350 351 351 351 351 351 352 352 354 355 353 352 353 353 354 355 351 350 351 351 351 351 350 348 345 342 340 338 336 334 335 337 339 341 342 343 344 346 346 346 344 340 338 338 338 338 338 337 335 334 335 336 337 336 336 336 336 336 336 336
350 350 350 350 350 351 351 350 350 351 353 352 352 353 352 352 353 353 353 354 353 351 350 350 350 350 352 352 352 352 353 354 355 356 356 352 350 354 356 355 354 350 350 352 351 350 350 347 343 338 335 334 333 331 332 336 340 343 343 344 344 344 345 344 343 340 337 337 338 338 337 337 336 336 336 336 336 336 336 335 335 335 335 335 335
348 349 350 350 352 352 352 351 350 350 352 352 351 352 351 351 352 352 352 352 351 350 350 349 349 350 352 352 351 352 352 353 354 354 353 352 353 356 355 352 351 350 350 351 349 348 347 342 337 334 332 332 332 333 336 339 342 343 342 342 342 341 341 340 338 337 337 337 337 336 336 336 335 336 336 335 335 335 336 335 335 335 334 333 333
349 349 349 350 351 352 352 352 350 350 351 352 352 352 352 352 351 351 351 350 350 349 349 349 349 350 352 352 352 352 351 351 352 352 352 353 355 354 352 351 350 350 350 349 348 346 341 335 333 332 332 332 334 336 339 340 341 341 341 340 339 338 338 337 336 336 335 334 334 333 333 334 334 334 334 334 334 335 335 336 335 333 332 331 332
349 350 349 350 350 351 352 351 350 351 352 352 352 353 353 352 351 351 350 348 348 349 349 349 349 350 351 351 352 353 352 352 353 353 353 354 354 353 351 351 350 349 349 348 346 341 335 332 332 332 332 334 336 337 338 338 339 339 338 336 335 335 333 332 332 332 330 329 328 327 328 328 329 330 330 331 332 332 333 333 332 332 332 331 331
348 349 350 351 351 351 352 351 350 351 352 353 354 353 352 352 351 351 350 348 347 348 348 348 349 350 349 350 351 352 351 353 353 353 353 353 352 352 351 350 350 349 348 347 341 335 332 332 332 331 332 335 336 336 336 336 337 336 335 332 331 330 327 326 326 326 325 324 324 323 323 323 324 325 325 325 326 326 328 328 328 330 331 331 332
347 348 349 351 351 351 352 351 350 351 352 353 353 351 350 351 352 352 351 349 347 347 347 348 348 349 349 349 349 349 351 354 353 353 354 353 352 352 351 349 348 347 344 340 335 332 332 332 332 332 333 335 335 335 335 335 334 334 333 330 328 325 323 323 323 323 322 322 321 320 320 320 320 321 321 321 322 322 323 325 326 329 330 328 329
348 347 348 349 350 350 350 350 350 350 351 353 353 351 351 353 353 353 352 350 348 347 348 348 348 348 348 348 348 349 352 354 353 354 354 352 351 351 349 347 346 343 339 334 332 332 333 333 333 333 333 333 332 331 331 330 329 328 327 325 323 320 320 320 321 320 320 319 318 317 317 317 317 318 318 318 319 319 320 322 324 326 326 323 323
348 348 348 348 348 349 349 349 350 350 351 353 354 353 353 353 352 352 351 350 348 347 347 348 346 345 345 345 346 349 352 353 353 354 353 352 351 350 347 345 343 339 335 332 332 333 333 333 332 331 330 329 327 326 325 324 323 321 320 319 318 317 317 317 317 317 316 315 315 315 315 315 315 315 315 314 314 314 315 316 317 318 318 317 315
347 348 349 348 347 348 349 348 349 351 350 351 353 353 353 353 351 351 350 348 347 347 346 346 345 344 344 344 345 348 351 352 353 353 352 351 351 349 345 344 342 337 333 332 333 333 333 331 328 327 326 325 324 323 322 321 321 319 318 317 316 315 315 314 314 314 313 313 312 312 313 313 313 313 313 312 311 311 311 312 312 312 312 311 311
346 348 349 348 347 348 347 346 348 350 350 349 351 353 352 351 351 350 348 347 346 346 345 344 343 343 344 344 345 347 349 350 351 352 352 351 350 348 345 343 342 339 333 332 333 332 331 328 325 324 324 324 323 322 320 319 318 317 315 314 314 314 313 313 312 312 312 311 311 311 311 311 311 311 311 310 310 310 310 310 310 310 309 308 308
347 349 348 348 347 346 346 346 346 348 349 349 350 351 350 349 348 348 347 346 345 344 343 342 342 341 342 342 344 347 347 348 350 351 352 351 349 347 345 343 342 339 335 333 332 331 328 326 323 322 323 322 321 319 318 317 315 313 312 312 313 312 312 311 311 311 311 311 310 310 309 309 309 309 309 309 309 309 309 309 308 308 308 307 306
347 348 348 348 346 345 345 346 346 346 348 350 350 350 348 345 344 345 345 345 344 343 341 340 340 339 340 341 343 347 348 348 349 350 351 351 349 347 346 343 340 338 335 333 331 329 327 324 322 321 321 320 319 317 316 314 312 311 311 312 311 311 310 310 310 310 310 310 309 308 308 308 308 308 308 308 308 308 308 308 307 307 306 306 305
349 348 347 347 347 346 346 346 345 346 348 349 349 348 347 344 342 344 345 344 343 341 340 339 339 338 339 340 343 346 347 348 349 349 350 350 349 347 346 341 338 336 335 332 330 329 326 322 320 319 319 318 317 315 313 311 311 311 311 311 310 310 309 309 309 309 309 309 308 308 308 308 307 307 307 306 306 306 306 306 306 305 305 305 304
350 348 346 345 345 346 346 345 346 347 348 347 346 346 346 345 343 344 345 343 342 340 339 338 339 339 338 339 341 344 346 347 348 348 348 348 347 345 341 337 335 335 333 331 329 327 323 320 318 318 317 316 315 312 311 310 311 311 311 310 309 309 309 308 308 308 308 308 308 308 307 307 307 306 305 305 305 305 305 305 305 305 305 305 304
349 349 347 345 344 345 345 346 347 347 347 346 344 344 345 344 343 344 344 342 341 340 339 338 338 338 338 339 340 342 343 345 345 345 344 343 341 338 336 335 334 333 331 329 327 322 319 317 317 316 315 314 312 311 310 310 310 310 310 309 309 308 308 308 308 308 308 308 308 307 307 307 306 305 304 304 304 304 305 305 305 306 305 305 305
348 349 348 346 345 344 345 347 346 345 345 346 345 344 344 343 343 344 343 342 341 339 339 338 337 337 339 339 339 340 340 342 343 343 341 339 337 335 334 334 333 332 330 327 322 319 317 316 315 314 313 312 310 310 309 309 309 309 309 309 309 308 308 308 308 308 308 308 307 307 307 306 306 305 304 305 305 305 305 305 305 306 305 306 306
348 348 347 346 346 345 345 346 345 344 344 344 343 343 344 344 343 343 342 342 341 340 339 338 337 338 338 338 339 339 338 340 342 342 341 339 338 336 335 333 332 331 329 325 321 318 316 315 314 313 312 311 310 309 309 309 309 309 309 309 309 309 308 308 308 307 308 307 307 307 307 306 306 305 304 305 305 305 305 305 305 305 305 306 306
346 346 347 345 345 346 345 345 344 343 343 342 341 342 343 343 343 342 342 341 340 339 339 338 339 339 338 338 338 338 338 340 341 342 341 340 339 337 334 333 333 332 328 324 320 318 316 314 313 313 312 311 311 310 309 309 309 309 309 309 309 309 309 308 308 308 308 308 307 307 307 307 306 305 305 305 305 305 305 305 305 305 305 305 306
346 346 345 344 344 345 344 342 341 341 341 342 342 341 340 340 341 342 341 340 339 338 338 338 339 339 339 338 337 337 338 339 340 341 340 338 336 335 333 334 334 332 329 325 320 317 316 314 313 312 312 311 311 311 310 310 309 309 309 309 309 310 309 308 308 308 308 308 307 307 307 307 307 306 306 306 306 305 305 305 305 305 305 305 306
346 345 344 343 343 342 341 340 339 338 338 340 341 340 339 338 337 338 339 340 338 337 337 337 338 339 340 339 338 337 337 337 338 338 337 336 335 334 334 334 333 331 330 328 321 316 315 314 313 312 312 311 311 311 311 311 310 310 310 309 309 309 309 308 308 308 308 308 308 307 307 307 307 307 307 306 306 306 306 306 306 306 306 305 306
346 345 344 342 341 340 339 338 336 336 338 338 338 337 337 336 333 332 335 337 337 336 336 336 337 338 338 338 338 337 336 337 337 336 335 335 334 334 333 333 331 330 330 327 320 315 314 313 312 312 311 311 311 311 311 311 311 310 310 310 310 310 309 308 308 308 308 308 308 307 307 307 307 307 307 307 307 307 307 307 306 306 306 306 306
346 345 344 342 340 339 338 337 335 336 337 338 337 336 335 335 333 332 333 333 333 332 333 334 336 337 338 337 338 337 337 337 336 334 331 331 332 334 333 330 328 328 328 325 318 315 314 313 312 311 311 311 311 311 311 311 311 311 311 311 310 310 309 309 308 308 308 308 308 308 307 307 307 307 307 307 307 307 307 307 307 306 306 307 307
345 345 345 343 341 340 339 337 336 336 336 336 336 335 334 333 334 335 334 332 328 327 328 331 334 337 338 338 338 337 337 334 330 328 328 329 331 333 331 325 321 322 322 320 316 314 313 313 312 312 312 311 311 311 311 311 311 311 311 310 310 310 309 309 309 308 308 308 308 308 307 307 307 307 307 307 307 307 307 307 307 307 307 307 308
345 345 345 343 341 340 339 337 336 335 336 336 335 334 333 334 334 335 334 331 328 325 326 328 330 332 334 334 333 332 329 326 325 325 328 330 332 332 328 321 318 318 317 315 315 314 313 313 313 312 312 311 311 311 311 311 311 311 310 310 310 309 309 309 309 308 308 308 308 308 307 307 307 307 307 307 307 307 307 307 307 307 307 308 308
345 344 344 343 341 340 339 337 336 336 336 335 334 334 334 335 335 334 331 328 326 324 323 324 325 325 325 325 325 324 323 322 324 326 327 329 330 329 325 320 318 317 315 314 314 314 313 313 312 312 311 311 311 311 311 311 310 310 310 310 309 309 309 309 309 308 308 308 308 308 308 308 308 307 307 307 306 306 306 306 306 306 307 307 307
344 344 343 342 341 340 338 337 336 335 335 334 334 335 335 334 333 331 328 325 323 322 321 321 321 321 321 322 323 323 322 321 321 321 321 322 323 323 321 318 316 315 314 314 313 313 313 312 312 311 311 311 311 311 311 310 310 310 310 309 309 309 309 309 309 309 308 308 308 308 308 307 307 307 306 305 304 303 303 304 305 305 305 305 306
343 343 342 342 341 339 337 336 336 335 334 334 334 335 334 332 330 328 325 323 322 320 319 318 318 319 320 320 320 320 319 318 317 317 317 318 319 319 317 315 314 314 313 313 313 313 312 312 312 311 311 311 311 311 311 310 310 310 310 309 309 309 309 309 309 308 308 308 307 307 307 306 306 305 303 301 301 301 302 302 303 304 304 304 304
343 342 341 341 339 338 336 335 335 334 333 333 334 334 333 331 329 326 324 322 321 319 319 318 317 317 318 318 318 318 317 316 316 317 317 317 317 315 315 314 314 314 313 313 313 312 312 312 312 311 311 311 311 311 311 310 310 310 310 309 309 309 309 309 308 308 308 307 307 306 305 304 303 301 299 298 298 299 300 301 301 302 302 302 302
343 342 340 339 338 336 335 334 333 332 332 332 333 332 331 328 326 325 323 322 320 319 318 318 317 316 317 317 318 318 317 317 316 316 316 315 315 314 314 314 314 313 313 313 313 313 312 312 312 312 312 312 311 311 310 310 310 310 310 309 309 309 308 308 308 307 307 306 305 304 302 301 299 297 296 297 298 298 299 300 300 300 300 301 301
343 341 339 338 337 335 334 332 331 330 330 330 330 330 328 326 325 323 322 321 320 319 318 318 317 316 316 317 317 317 317 316 316 315 315 314 314 314 314 314 313 313 313 313 312 312 312 312 312 312 312 311 311 311 310 310 310 310 310 309 309 308 308 307 307 306 305 304 303 301 300 298 296 295 296 297 298 298 298 299 299 299 300 300 301
342 340 339 337 336 335 333 331 330 329 328 327 327 327 325 324 323 322 321 320 319 319 319 318 317 316 316 316 316 316 315 315 315 315 315 314 314 314 314 313 313 313 313 313 313 312 312 312 312 312 311 311 311 311 310 310 310 310 309 309 308 308 307 306 305 304 303 302 300 299 297 295 295 295 296 298 298 298 298 299 299 299 300 300 300
341 340 338 337 335 334 332 330 328 327 325 324 324 323 323 322 321 321 320 320 320 320 319 318 317 316 316 316 316 316 316 315 315 315 315 315 314 313 313 313 313 313 313 313 312 312 312 312 311 311 311 311 311 310 310 310 310 309 309 309 308 307 306 305 303 302 301 299 298 296 295 294 295 296 297 297 298 298 298 299 299 299 300 300 300
341 339 338 336 334 332 330 327 325 324 323 322 321 321 321 320 320 320 320 320 320 320 319 318 317 317 317 317 316 316 316 316 316 316 316 315 314 314 313 313 313 313 313 313 313 312 312 311 311 311 311 311 310 310 310 310 309 309 308 308 306 305 304 303 301 300 298 297 296 294 294 294 296 296 297 297 297 298 298 299 299 299 299 299 298
340 339 338 335 332 330 327 324 323 323 322 321 320 320 320 320 320 320 320 320 319 319 318 318 318 317 317 317 317 317 317 317 317 317 316 315 314 313 313 313 313 312 312 312 312 312 312 312 311 311 311 310 310 310 309 309 308 308 307 306 305 304 302 301 300 298 297 295 294 293 294 295 296 296 296 297 297 297 298 298 298 299 299 299 298
339 339 337 333 330 327 325 323 323 322 322 321 321 320 320 320 320 320 320 319 319 319 318 318 318 318 318 317 317 317 317 317 317 316 316 315 314 313 313 312 312 312 312 312 312 312 312 312 311 311 310 310 309 309 308 308 307 307 306 305 304 302 301 299 298 297 295 294 293 293 294 296 296 296 296 296 296 297 298 298 298 298 299 298 298
337 337 334 331 327 326 324 323 323 322 321 321 320 320 320 320 320 320 320 320 319 319 318 318 318 318 317 317 316 315 315 315 315 314 314 314 313 313 313 312 312 312 312 312 312 311 312 311 311 311 310 310 309 308 308 307 306 305 304 303 302 300 300 299 297 295 294 293 293 294 295 295 295 295 295 295 296 296 297 298 298 298 297 297 297
333 332 330 327 325 324 324 323 322 322 321 320 320 320 320 320 320 320 320 320 319 319 318 318 318 317 317 316 315 314 314 314 314 313 313 313 313 312 312 312 312 312 312 312 311 311 311 311 311 310 310 309 308 308 307 306 305 304 303 302 301 300 299 297 296 294 293 293 293 294 295 295 295 295 295 295 295 296 297 297 297 297 297 296 296
327 326 325 323 322 322 321 321 321 321 320 320 320 320 320 320 320 321 321 320 319 318 318 318 318 317 317 316 315 315 314 314 314 314 313 313 312 312 312 312 313 313 312 312 312 312 312 311 311 310 309 309 308 307 306 306 305 303 302 301 300 299 297 296 295 294 293 293 293 293 294 293 293 294 294 294 295 296 297 297 297 296 296 296 296
322 322 322 321 321 321 321 321 320 320 320 320 320 320 320 320 318 317 318 319 319 318 317 317 316 316 316 316 316 315 315 314 314 313 313 312 312 312 312 313 313 313 312 312 313 313 312 311 310 310 309 308 308 307 306 305 303 302 301 300 299 298 296 295 294 294 294 293 293 293 293 292 292 293 293 294 295 296 296 296 296 295 295 295 295
Wind_Speed
34 35 36 38 38 38 40 41 42 39 32 27 26 28 29 29 28 27 27 27 27 26 26 25 23 22 22 23 24 24 23 22 21 21 21 20 19 18 18 18 18 17 15 15 16 15 13 11 9 9 9 9 10 9 9 9 9 10 9 9 9 8 8 8 7 7 8 7 8 9 12 13 11 10 11 11 11 11 11 11 11 12 13 13 13
33 35 37 37 39 41 39 34 28 24 21 18 19 21 23 25 26 25 25 26 26 27 26 25 25 24 22 24 25 24 23 22 21 22 22 21 20 19 19 20 19 18 16 15 15 15 14 12 10 10 10 10 10 9 10 11 10 11 10 10 10 9 8 8 7 6 7 7 9 11 13 14 12 10 11 11 11 12 11 11 10 10 10 12 13
33 36 36 36 40 36 26 20 20 21 22 25 28 29 25 23 23 25 27 27 27 27 27 27 27 26 24 24 25 24 23 22 22 22 23 23 21 20 21 21 19 19 18 17 16 16 15 14 13 13 12 11 10 11 12 12 12 11 10 9 8 7 6 6 6 5 5 7 10 12 13 14 13 11 11 11 11 11 11 10 10 9 10 13 14
30 32 34 36 34 23 18 23 27 26 27 31 35 35 30 26 27 28 28 28 28 28 28 28 28 27 25 24 23 23 23 23 22 22 23 24 23 23 22 19 17 18 19 19 18 17 15 15 14 14 13 13 13 12 12 12 12 11 8 7 6 5 4 5 5 5 4 6 8 9 11 13 11 10 11 11 11 11 10 10 11 11 12 15 13
26 29 31 30 22 18 21 22 18 18 25 32 35 34 30 28 30 30 30 29 29 29 29 29 29 29 27 25 23 23 23 23 23 22 23 24 25 24 20 17 18 21 21 20 19 16 14 14 13 13 14 14 13 11 11 10 9 8 6 5 4 4 4 4 3 4 4 6 6 6 8 10 9 9 12 13 13 12 10 10 11 12 14 15 11
20 21 18 14 13 19 25 21 17 19 28 34 35 33 32 31 31 31 31 30 30 30 30 30 29 29 29 28 25 24 23 22 21 21 22 23 23 21 19 18 20 22 21 20 18 16 14 13 12 12 13 12 10 9 9 7 7 6 5 5 4 4 4 3 3 3 5 6 4 4 6 8 7 9 12 13 12 11 10 11 12 13 15 14 9
14 14 9 8 14 20 21 22 23 27 31 36 36 34 33 33 33 32 30 29 29 30 30 29 28 28 28 28 27 25 24 22 20 21 21 22 21 20 19 19 20 20 19 17 16 15 14 12 11 11 10 10 8 8 7 5 6 5 4 4 4 5 4 3 3 3 4 5 3 3 4 5 5 7 11 13 11 10 10 11 12 14 16 12 9
11 10 8 11 19 21 19 22 29 33 34 36 35 33 32 32 32 31 28 27 28 28 29 28 26 26 27 28 28 26 24 22 21 21 21 20 20 20 20 20 19 19 17 15 14 13 11 10 9 8 8 8 7 7 5 5 5 4 4 5 5 4 4 3 3 3 3 4 2 3 3 3 4 7 11 13 13 12 11 9 9 12 14 10 9
8 7 8 12 20 22 20 22 28 32 33 33 31 31 31 30 30 29 28 27 26 25 27 27 26 26 27 27 27 26 24 23 22 22 21 20 21 21 21 20 19 16 14 13 12 11 9 8 7 6 6 6 6 6 5 5 5 5 6 6 5 4 3 3 3 2 3 3 2 2 2 3 4 6 10 12 11 11 10 9 7 10 13 11 9
9 10 12 14 19 22 21 22 26 28 28 30 31 31 31 30 29 30 29 27 26 25 25 26 26 26 26 26 25 24 24 23 21 21 21 22 23 22 20 19 17 13 11 12 11 8 6 6 6 7 7 6 5 5 5 5 5 5 5 5 4 4 3 4 3 3 5 4 4 4 2 3 4 5 7 9 10 11 11 10 8 9 12 11 9
11 12 13 16 18 21 21 23 26 28 29 31 31 32 33 33 31 31 30 28 27 26 25 26 27 26 26 26 25 24 24 22 20 20 21 22 22 20 16 14 12 12 13 16 15 12 10 10 9 8 8 6 5 5 5 5 5 4 3 3 3 3 3 4 3 2 2 3 5 4 2 2 3 5 7 8 9 11 10 9 7 7 8 7 5
10 13 14 16 19 21 22 24 25 28 30 31 31 32 33 32 32 32 30 28 26 26 26 26 24 23 22 22 22 23 23 22 21 19 19 18 17 14 13 13 13 12 15 17 16 14 13 11 9 7 6 5 4 4 4 2 2 2 2 1 1 1 2 3 3 4 5 6 5 3 3 3 4 6 7 7 8 8 7 7 6 5 5 4 3
9 12 14 17 20 22 23 24 24 28 30 28 27 27 29 31 33 33 30 27 26 25 24 20 17 17 17 16 16 17 18 21 22 20 18 17 14 13 14 14 12 11 13 15 14 14 13 11 8 6 4 3 2 2 3 4 6 6 6 6 6 6 6 6 6 6 6 6 6 5 5 4 4 5 5 6 6 6 6 6 6 5 5 5 5
11 13 17 20 22 23 24 24 26 28 29 27 24 24 27 30 32 32 29 24 21 19 15 13 15 18 18 16 16 15 14 17 19 18 18 16 14 14 14 13 13 14 16 16 15 14 12 9 6 5 4 4 4 4 6 8 9 9 9 10 11 10 10 9 9 8 7 7 7 7 7 5 4 4 5 6 6 5 5 5 6 6 6 6 6
13 15 19 22 24 24 26 27 28 27 27 26 24 24 26 28 29 26 20 14 10 8 9 13 17 19 19 19 21 20 18 17 16 16 18 16 14 15 17 18 19 19 19 18 17 14 10 7 6 6 6 6 7 7 9 10 11 12 13 14 14 13 13 12 11 10 9 9 9 9 9 8 6 5 5 6 6 5 4 4 5 7 8 9 10
13 13 15 18 20 23 25 25 24 23 23 23 22 22 24 25 24 17 11 10 10 10 11 14 18 21 22 22 23 24 22 20 18 18 18 17 17 19 20 21 21 21 20 19 16 12 9 7 7 7 8 9 9 10 10 10 11 14 16 16 16 16 16 14 12 11 11 11 12 12 11 10 8 8 7 6 6 6 4 5 7 7 8 9 8
17 15 16 17 19 22 25 24 23 21 21 20 20 21 22 21 17 15 14 14 17 18 17 17 18 22 24 25 26 25 22 21 21 21 20 20 21 22 22 22 22 22 20 18 14 11 9 8 8 9 10 11 11 10 10 10 12 15 17 18 18 18 17 15 13 12 12 12 12 12 11 10 9 8 8 8 8 7 6 7 8 7 6 6 5
20 19 18 19 21 22 24 24 23 21 20 20 21 21 19 18 16 16 17 19 21 21 21 22 22 24 26 27 27 25 23 23 24 23 23 24 25 25 25 25 24 22 20 17 14 13 12 11 10 12 13 14 12 11 10 10 12 15 16 17 17 16 14 12 11 11 10 10 10 10 10 11 10 10 11 10 9 9 9 9 7 5 6 6 4
18 20 20 20 21 22 23 23 23 21 20 22 22 20 18 18 19 18 19 19 21 23 23 24 25 25 26 26 25 25 25 27 27 26 26 26 27 27 27 26 25 23 21 19 17 16 16 15 14 15 16 16 14 13 11 11 13 14 13 14 16 14 11 9 8 8 9 9 10 11 12 13 13 13 14 14 13 13 13 12 9 8 9 8 7
18 21 23 22 22 23 23 22 22 23 23 23 22 20 20 20 20 20 18 19 23 25 26 26 26 24 24 24 25 27 29 30 28 27 27 27 28 29 28 27 27 25 22 21 20 19 19 19 18 17 17 16 15 14 13 12 13 13 12 14 15 14 11 11 10 10 11 13 14 14 14 15 15 16 17 17 17 17 16 16 14 13 14 13 13
19 21 23 22 22 23 23 22 23 23 24 23 21 21 22 22 22 21 20 21 24 25 24 23 23 22 22 24 27 29 31 32 30 28 27 27 28 28 28 27 27 26 24 22 22 22 22 21 20 18 16 16 15 14 14 13 13 14 14 14 13 12 11 12 13 12 13 15 15 16 16 16 17 18 19 19 20 19 18 18 18 18 19 18 18
17 19 20 21 22 20 19 21 21 20 20 21 21 22 24 23 22 23 23 22 22 22 22 21 21 21 20 22 26 28 29 30 30 28 27 26 27 27 26 25 25 24 24 24 23 24 23 22 21 18 16 15 14 14 14 14 14 14 13 12 11 11 12 13 13 13 14 16 17 17 18 17 18 19 19 20 20 19 19 19 19 19 21 20 20
15 16 17 19 22 20 17 17 18 18 18 20 22 22 22 22 22 23 23 21 19 19 20 22 22 21 20 20 22 25 27 29 30 29 26 25 26 25 24 24 24 23 24 25 25 25 24 23 21 18 16 15 15 14 14 14 14 13 12 11 12 12 13 14 14 15 16 18 19 20 20 19 18 19 19 19 19 19 18 19 18 19 19 20 20
13 15 15 14 13 14 14 13 14 16 17 18 20 20 19 21 21 20 21 21 19 18 21 23 23 22 21 21 22 24 26 28 29 28 25 25 25 24 22 23 23 23 24 26 26 26 25 23 21 19 17 17 16 15 15 15 14 13 12 12 12 13 14 15 16 17 19 20 20 21 20 19 19 18 18 17 17 17 17 17 17 17 18 19 20
12 14 13 9 6 9 11 10 11 14 16 16 17 18 18 20 21 22 22 22 20 19 20 22 22 21 21 22 23 24 27 28 27 26 25 24 24 23 23 24 24 23 24 26 26 26 25 24 22 19 18 17 16 16 17 16 15 14 13 13 14 14 16 17 18 19 20 20 19 19 18 17 17 17 16 16 15 16 17 17 17 17 17 18 20
10 10 8 7 10 12 9 5 7 15 18 17 17 18 18 20 23 24 24 23 21 22 22 22 23 23 21 22 24 24 26 27 27 26 25 25 24 25 25 25 24 23 24 26 26 26 26 24 22 20 19 17 17 18 18 17 17 16 15 15 16 17 18 18 18 18 19 18 17 17 16 16 16 16 16 17 18 19 19 19 19 19 18 18 19
7 6 5 5 8 9 6 4 9 15 16 15 16 18 18 20 23 23 24 24 23 23 23 25 25 24 21 21 24 25 26 28 28 27 27 27 27 28 27 26 26 26 26 27 28 28 27 25 23 21 20 19 19 19 19 19 18 17 16 16 18 18 17 17 17 18 17 16 15 15 14 14 15 16 17 18 18 18 18 18 19 18 18 18 19
6 5 4 3 3 4 7 8 10 13 13 13 16 18 17 19 23 22 23 26 27 27 27 27 28 27 25 25 26 25 26 28 29 29 29 30 31 31 29 28 28 29 30 30 30 30 28 26 24 22 21 21 20 20 20 19 18 17 16 15 16 16 15 15 16 16 16 15 14 13 13 13 14 14 15 16 16 15 15 15 15 16 16 17 16
7 4 2 4 5 7 11 13 13 14 14 14 17 18 18 20 24 23 23 26 29 32 32 32 32 32 33 33 32 28 27 28 30 30 31 32 32 31 30 30 30 31 31 32 32 30 28 26 25 23 22 21 21 20 19 18 17 15 14 13 13 13 12 13 13 13 13 12 12 12 11 12 12 12 12 13 13 12 12 13 13 13 14 15 14
5 2 3 6 8 10 13 15 17 18 18 18 17 17 17 19 22 24 25 24 24 28 31 34 35 37 37 34 33 31 31 30 30 31 31 30 29 28 28 30 30 31 32 33 32 29 27 26 24 22 21 20 20 19 17 16 15 14 12 11 10 9 9 10 10 10 10 9 9 9 10 10 10 10 10 10 10 10 10 11 11 11 12 12 12
4 3 4 6 9 12 14 17 19 20 22 22 21 19 17 15 16 20 24 24 22 24 28 33 37 39 38 33 30 29 30 31 30 30 29 27 26 26 28 29 29 31 32 31 29 28 26 25 23 21 20 19 18 17 15 14 14 12 11 9 7 7 7 7 7 7 7 6 6 7 8 8 8 8 8 8 8 9 10 10 10 11 11 11 10
5 4 3 5 8 12 15 18 20 21 22 23 23 23 21 18 16 16 19 21 20 20 25 30 34 35 35 33 31 31 31 30 29 28 27 25 25 26 28 28 29 30 29 27 26 26 25 24 23 21 19 18 16 15 13 12 11 10 9 8 6 6 5 5 4 4 4 4 5 6 6 7 7 7 8 8 9 10 11 12 12 13 13 13 13
6 5 4 5 8 11 14 16 19 22 23 23 22 21 22 22 22 22 20 20 20 21 23 27 30 30 29 29 30 31 31 30 28 27 25 24 25 27 28 28 29 28 26 25 26 25 24 23 22 20 19 17 15 13 12 10 9 9 8 6 5 4 3 3 2 3 3 3 4 5 6 7 7 8 9 10 11 12 14 15 16 16 16 16 17
6 6 5 6 7 11 14 15 17 20 22 22 21 21 22 25 27 26 25 25 23 22 22 23 25 27 27 28 28 30 30 28 27 25 24 24 26 28 29 30 28 26 25 26 27 26 24 23 22 20 18 16 14 12 10 9 7 6 6 5 4 3 2 2 1 2 3 3 4 6 7 8 9 10 12 13 14 15 17 18 18 18 18 18 19
7 6 5 6 6 9 12 14 16 17 19 20 22 23 24 26 27 26 25 26 25 23 22 23 23 25 27 27 27 27 26 26 25 24 25 26 27 29 31 30 27 24 24 25 26 25 24 23 21 18 17 15 13 10 8 7 6 5 5 4 4 3 2 1 1 3 3 4 6 7 8 9 11 12 14 15 17 18 19 19 19 19 19 18 17
8 6 6 7 7 8 10 12 14 16 15 17 23 25 22 22 24 24 25 27 28 26 25 25 25 25 26 26 25 24 23 23 23 24 25 27 28 30 30 28 26 25 25 25 24 23 22 20 19 17 16 14 11 8 6 6 5 5 5 4 4 3 2 2 2 3 4 5 6 8 9 11 12 14 15 16 17 18 18 17 17 17 16 15 15
8 7 8 8 7 8 11 13 14 14 13 16 23 26 23 22 25 27 27 28 29 30 30 28 27 26 25 24 23 22 22 23 24 26 27 28 29 29 30 29 27 27 26 24 23 22 20 18 17 16 14 11 9 7 6 5 5 5 4 4 3 2 1 1 2 3 5 6 7 9 10 11 12 13 14 15 16 17 17 16 15 14 14 13 13
8 8 8 9 8 8 10 12 12 11 12 16 22 24 23 23 25 27 30 32 33 34 32 31 30 29 28 26 25 26 27 29 29 29 29 29 28 28 28 28 27 26 25 24 22 21 20 18 16 14 12 10 8 6 5 5 4 4 3 3 2 1 2 3 4 5 6 7 8 10 11 12 13 14 15 16 17 17 16 15 13 12 13 13 13
8 9 9 9 9 9 10 12 11 10 13 18 21 21 22 24 25 27 29 32 33 32 30 29 29 31 32 32 32 32 32 31 29 28 27 27 26 26 26 26 25 25 24 23 21 19 18 17 15 12 11 9 8 6 5 4 4 4 3 2 2 3 4 4 5 5 7 8 10 11 12 13 15 16 17 18 16 14 13 12 11 11 12 12 12
9 10 10 11 10 10 11 12 11 9 13 19 22 21 21 24 27 27 27 27 27 27 27 26 27 31 33 35 35 34 32 29 28 27 26 26 25 25 25 24 24 23 22 21 19 17 16 15 13 11 10 9 7 5 5 4 4 3 3 4 4 4 3 3 5 6 8 9 11 12 14 16 17 18 18 17 14 12 11 11 10 10 10 10 11
10 12 12 13 12 12 14 14 13 14 16 20 23 23 22 24 27 29 28 26 26 27 27 25 26 30 33 34 33 32 31 29 28 27 27 27 26 25 23 22 22 21 20 19 17 15 14 13 11 10 9 8 7 6 5 5 4 4 5 4 4 3 3 4 6 7 9 10 12 14 16 17 17 17 16 14 11 10 10 10 9 9 9 10 10
11 13 13 14 14 15 16 16 17 18 20 21 23 24 25 27 30 31 30 28 28 29 28 26 26 29 32 31 30 29 29 28 28 28 28 27 25 23 22 20 20 19 18 17 15 14 12 11 10 9 9 8 7 6 6 5 5 5 4 3 3 2 3 5 7 8 10 13 15 16 16 16 15 14 12 9 9 9 9 9 9 9 9 9 10
9 13 15 16 16 16 18 18 19 20 21 21 22 23 26 28 30 30 30 30 29 29 29 28 28 30 30 28 28 28 28 28 29 29 27 25 23 21 20 19 18 17 16 15 13 12 11 11 10 10 9 8 7 7 6 6 6 5 3 2 2 3 4 6 8 10 13 15 16 16 15 14 12 10 8 7 7 8 8 8 9 9 8 9 10
7 12 15 16 16 17 19 20 21 21 21 21 19 18 19 22 24 26 27 28 27 28 30 31 31 31 29 27 27 28 27 27 28 27 25 23 22 20 19 18 16 15 14 12 12 11 10 10 10 9 9 8 8 7 6 5 4 3 2 1 2 3 5 7 10 12 14 15 15 14 13 11 8 7 6 6 7 7 7 8 8 8 8 9 10
6 12 14 15 17 19 20 21 22 23 22 22 20 18 17 18 20 23 25 25 23 23 25 28 30 30 29 28 28 27 26 25 24 23 23 22 21 19 18 16 15 13 12 11 10 10 9 8 8 8 8 8 7 5 4 3 2 1 1 1 3 5 7 9 11 13 14 14 14 12 10 8 6 5 6 6 7 7 7 8 8 8 9 10 10
6 11 14 16 18 20 22 24 25 26 25 24 23 22 20 19 19 23 27 31 30 26 24 24 26 28 27 27 26 25 23 22 21 21 21 21 19 17 16 15 13 12 11 10 9 9 8 8 8 8 8 7 5 4 3 2 1 0 1 3 5 7 9 11 12 14 14 13 12 9 8 6 5 4 5 6 6 6 7 7 8 8 8 9 10
4 10 15 19 21 23 24 26 27 26 26 25 25 25 25 24 24 25 28 32 33 29 25 23 24 25 25 25 24 23 22 21 20 19 19 18 17 15 14 13 12 11 10 9 9 8 8 8 8 7 7 5 4 3 3 2 1 0 3 5 7 9 11 12 14 14 13 11 9 7 6 5 5 4 5 6 6 6 7 7 8 8 8 8 9
4 9 15 20 22 24 24 25 26 26 27 27 28 29 29 28 28 27 27 28 28 27 24 23 23 24 24 24 23 23 22 21 19 18 17 16 14 13 12 11 10 9 8 8 7 7 7 7 7 6 6 5 4 4 3 2 0 2 5 7 8 10 12 13 14 13 11 9 7 6 5 5 5 5 6 6 6 6 7 7 7 8 8 8 9
14 19 22 23 24 24 25 26 27 27 28 29 29 29 29 28 26 26 27 27 26 25 24 22 22 22 23 23 23 23 22 20 18 16 15 14 13 12 10 8 7 7 6 6 6 6 5 5 5 5 5 5 4 4 2 0 2 4 6 7 9 11 13 13 12 10 9 8 6 5 5 5 5 6 7 7 6 6 7 7 7 8 9 9 9
25 28 30 30 29 29 29 30 29 29 29 30 29 28 27 26 25 26 27 28 27 26 24 21 19 18 20 21 22 21 19 17 15 14 13 12 11 11 9 7 6 6 6 5 5 5 5 5 5 6 6 5 4 3 1 1 3 5 6 8 10 12 12 11 9 8 8 7 6 6 6 6 7 7 8 6 5 5 6 7 8 8 9 9 9
32 35 37 37 37 36 35 34 33 32 32 32 31 29 28 27 26 26 25 25 26 27 25 22 20 19 18 18 18 17 16 15 14 13 12 11 10 9 8 7 6 6 6 5 5 5 5 6 6 6 6 5 4 2 1 2 3 5 7 9 10 11 10 9 7 6 6 6 6 6 7 7 7 7 7 6 5 6 7 7 8 8 9 8 8
Wind_Direction
228 227 224 223 222 223 224 225 224 224 225 228 232 231 230 230 230 231 233 233 233 233 235 237 241 247 248 246 244 244 246 247 249 251 250 247 245 244 243 243 246 250 251 247 240 233 234 241 249 255 255 251 244 243 252 262 267 267 267 265 262 263 261 245 242 271 281 285 296 312 330 332 335 351 349 339 338 337 336 337 335 337 337 337 339
227 227 226 223 223 224 224 224 224 222 221 232 245 246 240 233 228 227 229 231 232 233 236 239 242 246 246 244 243 244 246 249 251 251 250 249 246 243 241 241 243 242 241 241 235 230 235 242 248 257 260 253 246 255 269 272 270 268 266 266 266 268 267 256 248 269 284 294 308 323 340 343 344 354 356 352 352 350 346 345 346 351 352 353 353
228 227 226 225 226 224 218 216 222 222 221 228 235 237 237 234 232 230 229 232 233 234 237 240 242 244 242 241 242 244 246 249 251 251 251 251 248 244 242 239 237 235 236 238 236 235 239 244 252 260 259 254 255 267 276 272 266 266 265 265 268 269 268 258 251 260 279 302 316 329 342 342 343 355 360 1 4 1 357 358 2 9 10 6 359
232 229 227 228 227 216 204 214 219 215 217 224 227 227 226 226 230 233 232 232 234 235 238 240 240 240 238 238 240 243 246 249 251 252 251 251 247 242 237 230 230 237 238 236 236 236 238 244 255 259 255 259 267 271 270 261 257 260 262 261 265 267 265 262 264 273 282 297 309 328 340 337 342 1 5 3 7 8 5 10 15 12 7 6 3
240 234 231 229 221 204 206 210 202 199 216 227 228 226 224 223 227 231 232 232 234 237 238 238 238 237 236 236 237 241 245 249 253 253 252 250 245 238 229 225 233 240 235 232 234 234 239 252 260 259 259 264 268 266 259 252 253 257 253 251 256 258 258 260 274 286 282 284 300 330 344 339 347 13 19 11 7 7 5 8 12 3 359 8 21
251 244 240 231 214 208 206 193 177 194 218 230 231 227 225 225 227 229 231 234 237 240 241 240 238 237 237 236 238 242 245 248 252 252 248 244 239 231 223 225 233 234 229 231 236 238 245 257 260 260 262 263 260 256 252 248 248 247 241 241 241 240 250 255 262 277 278 279 298 339 346 347 358 17 24 18 10 8 2 356 357 355 359 14 37
256 244 233 217 217 213 199 190 198 208 218 226 229 226 224 226 228 230 232 236 240 242 243 242 239 239 239 239 240 241 243 244 245 244 241 236 231 223 216 219 226 227 226 228 234 243 252 254 254 258 260 256 248 243 241 239 238 239 238 232 225 228 237 244 254 277 285 289 323 14 354 350 4 13 20 21 18 19 12 356 348 351 4 23 42
262 241 209 208 224 220 199 200 217 222 223 226 226 224 226 229 229 229 230 234 239 242 244 243 242 240 239 239 239 237 236 236 236 236 231 225 222 214 206 209 215 221 227 231 233 239 239 234 239 246 243 240 237 229 225 228 226 223 223 220 218 224 228 236 251 254 259 276 335 36 14 2 12 14 20 25 23 19 15 6 352 355 10 33 47
263 235 208 217 234 230 206 203 219 225 225 227 226 227 230 231 229 228 227 229 234 240 244 244 242 239 236 235 234 232 231 230 231 230 221 211 211 208 198 193 197 210 233 243 240 235 224 216 222 221 214 218 221 217 216 219 215 210 212 215 215 214 218 236 247 240 232 224 152 99 55 26 20 12 19 27 27 19 17 19 15 12 20 37 47
251 226 212 217 234 234 216 208 218 223 225 227 227 229 233 232 228 225 226 230 233 234 239 243 241 239 235 232 229 228 226 226 227 227 218 207 204 201 195 189 186 193 214 223 222 219 208 200 199 195 199 208 212 211 210 215 222 228 231 233 232 222 219 229 229 240 240 207 138 111 82 36 25 17 21 26 25 22 23 25 21 17 20 26 35
252 235 217 211 220 227 223 218 218 220 224 226 225 228 233 231 226 224 226 230 232 229 230 237 242 242 235 229 226 222 222 224 223 218 211 202 197 194 196 204 197 176 176 185 186 182 182 186 189 190 193 203 214 221 224 230 240 252 261 265 258 240 224 220 207 210 220 150 117 103 90 58 28 22 22 18 16 16 19 24 20 15 14 11 11
250 243 233 220 214 216 218 217 218 223 226 226 225 228 229 228 225 225 225 227 227 225 225 231 239 242 234 225 221 220 220 219 209 201 200 200 199 195 194 204 204 178 164 169 171 170 173 175 177 178 181 197 223 233 226 213 183 163 141 117 139 169 166 166 150 127 108 109 113 98 71 59 33 26 18 9 7 6 11 23 22 13 7 353 337
240 240 239 230 220 215 212 211 220 232 234 230 227 226 225 225 225 225 224 224 224 225 224 220 221 227 227 221 219 217 214 205 191 188 200 206 202 194 189 197 202 180 165 167 167 166 167 165 164 167 173 185 203 204 179 150 142 149 142 120 102 100 107 108 110 111 99 94 96 82 70 63 46 41 28 14 4 355 2 20 21 13 358 344 348
224 225 228 227 223 219 213 212 222 235 239 236 230 223 221 223 226 225 222 220 221 223 216 199 198 212 220 218 214 207 200 196 189 189 200 202 190 184 182 180 175 167 166 169 166 161 160 158 157 152 140 134 127 132 145 143 139 140 132 116 104 99 101 98 94 92 83 79 85 86 84 80 68 54 33 18 5 351 2 24 21 14 11 19 37
222 220 223 225 224 220 217 217 223 232 237 236 232 226 222 223 226 223 213 200 195 181 160 167 186 203 213 213 209 202 195 196 196 191 191 187 178 174 167 160 159 161 163 163 159 154 152 147 142 134 123 121 124 129 137 138 134 127 119 112 105 98 93 89 86 83 79 80 87 89 87 81 73 64 39 19 10 7 20 34 21 19 34 48 58
246 232 230 232 231 227 223 223 226 230 232 230 228 226 225 223 219 205 173 157 169 167 155 162 179 196 205 207 206 203 197 194 191 184 178 175 171 167 162 158 158 158 158 156 151 146 141 133 126 123 119 121 124 129 134 133 129 122 115 109 105 99 93 90 89 89 88 90 91 91 89 85 78 70 58 43 32 25 27 39 30 28 39 42 44
268 249 235 231 231 229 225 226 228 229 226 221 220 222 222 215 199 174 160 170 185 191 189 185 188 195 200 203 204 201 192 185 181 175 172 171 168 165 162 158 155 153 152 150 145 136 128 124 123 121 118 120 124 131 135 133 127 121 116 110 106 102 101 100 100 98 97 98 97 94 90 83 74 65 55 48 41 30 31 41 35 32 43 37 26
278 268 250 234 227 226 225 227 228 227 222 219 218 218 211 198 181 177 188 191 184 182 189 194 197 199 201 203 204 199 187 178 175 173 172 172 170 167 164 158 150 147 144 140 136 129 119 116 120 120 118 120 125 130 132 129 124 120 118 112 105 99 101 104 105 103 101 99 95 90 82 75 67 62 57 53 51 47 48 51 42 40 55 43 21
283 284 275 255 236 227 225 225 225 224 224 221 216 208 197 187 184 189 201 196 177 172 183 191 192 193 197 197 197 196 189 178 173 174 175 174 171 168 164 156 148 144 143 139 134 129 123 121 121 120 119 120 122 122 119 116 112 110 110 107 100 95 95 99 99 99 94 87 81 75 73 70 66 65 66 65 65 65 65 67 67 71 75 59 44
283 282 281 269 249 234 225 221 221 222 223 219 210 199 192 189 187 188 194 191 180 177 183 186 184 186 192 192 190 191 186 176 172 175 175 174 172 168 163 157 151 147 146 142 135 131 128 125 123 122 121 120 117 112 106 101 98 95 91 90 94 98 100 97 93 91 87 83 79 75 73 72 69 69 70 69 69 68 68 70 72 77 83 78 68
289 280 275 265 250 236 225 219 219 219 218 212 202 195 194 191 186 183 185 183 179 178 180 180 177 178 184 187 187 186 182 175 172 173 174 174 173 169 165 162 157 152 147 143 138 135 132 130 128 127 124 119 113 105 99 92 88 84 79 81 92 103 105 99 94 92 89 86 83 79 77 76 73 70 69 68 68 67 66 68 71 73 76 76 73
289 279 269 257 249 240 227 221 222 219 214 206 195 190 190 187 183 182 181 174 170 170 170 168 167 169 176 182 182 178 176 174 172 171 173 173 173 172 169 165 161 157 149 143 141 139 137 135 133 131 126 119 112 104 97 89 80 77 78 87 100 107 106 101 96 93 90 87 84 81 78 76 73 70 68 67 68 68 69 71 72 72 72 70 68
280 274 264 253 249 245 235 226 219 213 207 200 192 187 180 173 174 177 174 167 162 159 158 159 160 161 164 170 172 169 168 171 172 171 170 170 173 176 173 167 166 163 155 149 146 143 141 138 135 133 130 121 111 102 93 83 78 80 88 99 107 108 105 101 98 94 92 89 86 83 80 77 74 71 69 67 68 70 72 73 71 68 67 65 62
280 271 261 250 248 246 237 223 208 202 201 195 189 183 171 165 172 175 169 166 162 154 154 156 154 150 150 153 159 163 164 168 171 170 167 169 174 177 174 170 168 165 158 153 150 147 143 139 137 135 129 120 110 99 89 82 84 92 101 105 106 105 102 100 98 95 92 90 88 85 82 78 74 71 68 66 66 67 66 68 67 64 63 63 60
293 281 273 267 264 250 234 217 200 196 197 192 188 185 171 161 168 173 171 168 163 155 155 155 149 145 145 145 151 158 162 165 168 169 168 171 175 177 175 170 167 164 159 154 150 148 144 140 138 134 126 117 108 98 93 91 95 101 106 106 103 100 99 98 96 94 92 91 90 87 83 78 72 68 66 63 63 64 62 63 64 62 62 62 59
297 290 287 278 272 266 255 230 205 201 196 188 190 196 184 164 160 165 167 165 160 157 156 152 146 144 144 144 147 152 156 160 164 166 169 171 172 172 168 163 162 162 157 151 148 145 142 141 138 130 122 114 107 102 101 102 104 105 106 104 101 98 96 94 92 91 91 90 88 84 80 75 69 67 66 64 65 66 65 64 62 59 56 55 53
300 290 282 259 264 272 268 228 203 198 188 174 180 194 191 170 161 162 164 163 160 158 157 152 148 146 144 143 144 146 149 154 157 161 164 165 163 160 157 156 158 157 150 145 144 143 141 139 135 127 120 113 107 106 107 107 108 108 108 106 102 97 93 89 86 85 85 83 81 78 73 69 68 68 69 69 69 68 64 59 57 54 49 47 46
313 294 271 223 208 227 217 200 189 181 170 163 175 188 186 170 164 166 169 168 164 161 160 157 153 150 148 145 142 141 145 152 156 160 161 159 156 155 155 155 156 153 148 145 143 142 140 138 132 125 120 116 113 112 112 111 109 109 110 109 105 99 93 89 85 83 81 78 75 71 65 65 69 71 71 69 67 63 56 50 48 44 38 37 39
321 307 237 180 171 186 189 183 179 175 166 160 168 178 179 171 168 171 175 175 172 169 164 161 158 154 151 149 147 145 147 153 159 161 161 160 160 160 160 159 157 153 151 149 146 142 140 136 132 128 125 123 121 120 119 117 115 115 115 113 108 102 95 87 83 82 78 73 69 65 61 61 65 67 66 62 57 51 43 37 33 29 25 25 26
310 277 189 172 175 184 180 171 169 169 164 158 158 164 170 170 169 171 176 179 180 176 168 163 161 158 152 150 153 154 154 154 157 159 160 161 163 164 164 163 159 155 154 153 148 143 138 135 133 133 131 129 128 128 126 125 124 124 125 120 114 108 98 87 82 79 73 67 64 59 54 52 52 52 49 45 39 32 25 20 17 11 9 9 8
293 244 195 172 172 177 172 162 161 162 163 164 161 157 156 157 159 168 176 181 184 180 171 164 161 159 156 153 154 154 153 152 154 158 159 160 162 162 163 162 160 157 157 155 147 142 140 138 137 137 135 133 134 134 133 132 131 132 133 130 124 121 111 96 84 76 68 61 55 48 42 39 37 32 27 20 14 8 3 358 354 349 347 346 339
273 251 208 174 171 173 168 162 160 158 158 162 162 158 152 143 131 141 164 175 175 170 165 161 158 158 159 157 153 151 150 151 153 155 155 156 161 163 162 161 158 157 160 157 147 142 144 143 141 140 139 137 137 137 137 138 140 140 141 138 131 127 122 106 83 65 53 43 34 28 23 20 14 7 1 354 347 344 343 341 338 334 329 325 318
261 256 221 174 166 170 170 166 162 159 159 160 158 152 147 139 126 122 132 145 151 154 157 158 157 157 157 156 152 150 149 150 152 152 153 157 161 161 160 158 157 158 162 157 148 145 145 144 143 144 142 140 140 140 142 145 147 148 153 153 142 129 128 122 80 33 19 14 8 4 0 358 352 346 343 339 334 331 330 331 330 326 320 316 313
259 260 234 197 184 183 180 173 166 163 162 159 151 145 145 144 139 133 130 129 131 139 146 150 153 155 154 153 151 150 150 151 154 156 157 159 159 158 157 155 156 161 165 160 152 149 149 147 146 146 144 143 144 144 143 145 147 147 154 159 151 132 125 133 71 358 354 349 345 346 345 341 339 335 332 330 328 324 322 322 322 321 318 315 312
250 254 224 199 206 208 195 183 173 169 166 159 151 148 148 146 144 144 141 133 126 128 134 140 146 151 152 152 150 150 152 155 157 159 159 156 155 155 153 150 150 155 158 156 153 152 151 150 149 148 148 149 149 146 140 136 132 125 126 131 131 122 113 98 12 349 343 336 332 331 328 324 324 323 320 320 319 318 318 318 318 317 317 315 311
244 243 212 194 210 224 213 196 182 175 171 159 149 146 147 145 142 143 142 137 131 131 134 138 142 146 148 149 149 151 155 158 159 158 155 153 154 154 151 147 148 151 151 151 151 150 150 150 150 151 153 153 151 146 138 127 120 116 112 108 102 92 78 46 7 343 328 316 310 310 311 314 317 318 317 317 318 319 320 321 321 320 318 316 314
247 233 214 205 211 217 215 208 193 180 167 150 142 144 148 148 145 143 142 140 138 138 137 138 140 141 141 144 147 150 153 154 153 151 150 152 155 155 152 150 151 150 148 148 148 147 147 150 151 153 155 153 152 151 143 127 120 118 111 100 92 87 75 331 297 300 302 303 307 314 320 324 325 326 326 325 325 326 326 326 324 322 320 318 319
249 227 215 213 215 214 215 214 201 177 148 135 140 147 151 148 145 144 144 142 140 139 138 139 140 140 138 139 144 146 146 145 144 144 147 151 154 153 152 151 149 147 146 147 148 147 148 151 153 154 154 154 155 156 146 130 126 125 118 113 123 161 241 261 274 292 309 321 327 331 333 333 331 330 330 329 328 328 328 328 326 323 323 325 326
239 215 207 209 212 210 210 211 204 175 141 136 145 153 152 146 144 144 144 142 140 138 138 139 140 140 139 140 143 143 142 141 142 143 147 151 152 150 148 147 145 145 147 149 149 148 149 151 153 155 158 161 161 156 148 142 143 146 152 173 213 241 259 273 292 313 328 336 338 337 335 332 330 328 329 331 333 333 332 332 332 331 331 331 329
228 204 197 197 196 192 192 194 190 166 142 142 151 158 153 147 146 147 147 144 141 139 141 142 142 143 144 144 145 145 144 144 146 147 148 148 148 147 146 145 145 147 149 149 149 149 150 153 157 161 164 167 164 159 159 163 169 182 206 227 244 259 277 305 325 335 339 340 338 336 333 331 330 329 331 335 339 341 340 339 340 340 339 337 333
225 202 191 189 185 177 171 169 166 161 157 158 161 161 153 147 147 149 149 146 142 141 142 144 145 147 148 148 149 149 148 147 147 147 146 146 146 146 146 147 147 149 149 149 150 151 153 157 162 165 167 171 174 176 182 191 204 221 235 244 255 279 313 334 338 340 340 339 336 334 333 332 332 334 337 341 345 349 350 350 348 348 347 346 346
223 201 187 183 181 170 159 156 159 162 164 164 162 158 153 151 152 152 150 147 145 144 144 145 147 150 149 150 153 153 150 146 146 145 145 146 147 148 149 148 148 148 149 149 149 151 155 160 165 170 175 181 188 195 205 219 234 243 248 254 274 312 334 341 341 340 338 337 335 334 333 334 336 340 345 349 351 354 357 356 354 355 354 354 355
222 200 188 184 180 167 158 158 160 160 159 160 161 160 157 155 154 151 147 145 146 146 145 146 148 149 149 152 155 153 148 145 146 145 146 147 149 150 150 151 150 149 149 149 149 151 155 161 167 175 183 192 203 215 226 238 247 253 255 264 302 338 344 342 341 339 337 336 335 333 334 338 344 351 357 357 355 357 359 359 358 357 355 354 355
220 201 192 181 170 161 159 159 156 154 153 152 149 147 147 148 148 145 143 144 146 147 147 147 147 147 148 151 153 150 147 147 148 148 149 150 151 152 153 153 152 152 154 154 155 158 163 170 177 185 195 205 216 226 233 238 244 252 262 294 342 354 350 345 343 341 338 336 334 335 340 348 357 4 7 1 356 356 356 355 356 355 353 353 354
225 201 187 167 154 152 150 146 143 144 144 139 131 127 132 138 140 138 135 132 131 135 139 142 144 145 146 149 151 151 150 151 151 152 153 154 154 155 155 153 154 157 160 162 167 173 181 188 195 203 211 216 221 225 225 220 219 236 282 353 1 356 353 350 347 343 339 337 337 340 348 356 4 9 6 358 354 353 352 350 350 350 350 352 353
236 199 175 153 145 144 140 136 137 140 138 132 127 124 124 126 128 128 126 124 124 127 134 139 142 143 144 147 150 152 153 155 156 157 158 158 157 156 156 156 158 162 166 172 182 191 199 207 216 221 222 221 218 211 203 196 193 209 359 5 1 357 355 352 348 345 342 342 343 347 353 359 3 1 357 353 349 347 347 346 345 344 346 349 350
226 186 162 147 141 138 134 131 133 133 129 125 122 119 117 115 115 115 117 121 125 131 137 140 141 142 144 146 147 149 151 155 157 157 159 160 158 156 158 161 164 169 176 185 194 204 214 222 228 229 225 220 213 203 196 194 185 31 9 3 360 358 356 352 349 348 349 349 351 353 354 355 353 347 346 348 345 341 342 344 344 345 346 346 345
139 138 134 131 130 128 124 122 123 123 121 120 118 116 115 116 116 117 121 125 128 131 134 136 138 142 144 145 145 145 146 147 147 148 151 155 157 159 162 166 169 176 185 194 203 216 224 228 229 227 222 216 209 201 194 185 73 8 4 2 359 356 354 352 352 354 357 360 360 358 350 343 339 337 338 337 333 332 337 342 344 346 345 343 341
104 107 108 109 110 113 113 113 114 115 116 117 117 116 118 121 123 126 127 127 123 121 124 130 136 141 144 145 146 146 145 142 141 143 148 153 159 162 165 168 173 183 194 206 219 227 224 217 213 209 205 202 199 194 191 182 4 359 358 359 357 354 353 354 357 2 6 7 4 358 347 336 329 328 330 329 324 327 336 340 341 340 339 337 336
101 102 101 99 98 99 101 103 106 108 111 112 113 114 116 119 121 121 122 121 119 121 128 134 136 138 143 146 147 148 147 144 143 146 153 160 166 172 176 181 190 197 203 213 219 214 203 196 193 192 194 197 194 191 206 328 347 351 353 354 353 353 354 358 3 9 11 9 2 352 342 335 328 324 325 324 324 330 336 339 339 336 333 330 329
99 101 102 102 103 105 106 107 109 110 112 112 112 110 109 109 111 115 123 129 131 134 138 140 139 138 140 143 144 144 144 145 147 152 158 163 171 184 198 209 213 210 207 207 205 199 193 192 192 193 196 197 198 211 275 318 335 345 348 350 353 355 356 358 5 13 14 7 358 348 341 335 330 327 326 325 325 331 333 333 333 333 330 325 322